Flag for U.S.A. Weather past 2 weeks in Corpus Christi, Texas, U.S.A.

Now
80 °F

Passing clouds.


Feels Like: 85 °F
Forecast: 78 / 89 °F
Wind: 10 mph from Southeast

Location: Corpus Christi International Airport

Current Time: Jul 3, 2015 at 10:49:44 PM

Latest Report: Jul 3, 2015 at 9:51 PM


Visibility: 10 mi

Pressure: 29.94 "Hg

Humidity: 87%

Dew point: 76 °F

Location of Corpus ChristiLocation

Historic Weather in Corpus Christi — Graph

°F

Corpus Christi temperature yesterday

Maximum temperature yesterday: 89 °F (at 12:51 PM)
Minimum temperature yesterday: 72 °F (at 4:51 AM)
Average temperature yesterday: 81 °F

Past Weeks' High & Low Weather Summary

 TemperatureHumidityPressure
High92 °F (Jun 27, 12:51 PM)97% (Jul 3, 5:51 AM)30.13 "Hg (Jul 3, 5:51 AM)
Low72 °F (Jul 2, 4:51 AM)56% (Jun 23, 1:51 PM)29.91 "Hg (Jul 3, 6:51 PM)
Average82 °F80%30.01 "Hg
* Reported Jun 18 8:51 PM — Jul 3 8:51 PM, Corpus Christi, Weather by CustomWeather, © 2015

Note: Actual official high and low records may vary slightly from our data, if they occured in-between our weather recording intervals... More about our weather records

Advertising

Corpus Christi weather history for previous 24 hours

 ConditionsComfort  
Time TempWeatherWind HumidityBarometerVisibility
8:51 PM
Fri, Jul 3
82 °FPartly sunny.13 mph82%29.92 "Hg10 mi
7:51 PM84 °FPartly sunny.13 mph74%29.91 "Hg10 mi
6:51 PM86 °FScattered clouds.16 mph67%29.91 "Hg10 mi
5:51 PM88 °FScattered clouds.17 mph63%29.92 "Hg10 mi
4:51 PM89 °FPartly sunny.17 mph61%29.93 "Hg10 mi
3:51 PM89 °FBroken clouds.21 mph61%29.93 "Hg10 mi
2:51 PM89 °FBroken clouds.17 mph61%29.95 "Hg10 mi
1:51 PM89 °FBroken clouds.22 mph59%29.96 "Hg10 mi
12:51 PM89 °FBroken clouds.15 mph59%29.97 "Hg10 mi
11:51 AM88 °FScattered clouds.18 mph61%29.97 "Hg10 mi
10:51 AM87 °FBroken clouds.15 mph65%29.97 "Hg10 mi
9:51 AM85 °FBroken clouds.14 mph75%29.96 "Hg9 mi
8:51 AM82 °FBroken clouds.9 mph88%29.96 "Hg7 mi
7:51 AM78 °FFog.6 mph93%29.96 "Hg5 mi
6:51 AM76 °FFog.7 mph94%29.96 "Hg6 mi
5:51 AM76 °FFog.6 mph97%29.95 "Hg6 mi
4:51 AM77 °FFog.5 mph94%29.96 "Hg6 mi
3:51 AM78 °FFog.7 mph93%29.96 "Hg6 mi
2:51 AM79 °FMostly cloudy.6 mph94%29.96 "Hg7 mi
1:51 AM80 °FLow clouds.9 mph90%29.96 "Hg7 mi
12:51 AM81 °FOvercast.13 mph91%29.95 "Hg8 mi
11:51 PM
Thu, Jul 2
81 °FMostly cloudy.13 mph91%29.95 "Hg8 mi
10:51 PM80 °FPassing clouds.9 mph90%29.93 "Hg9 mi
Weather by CustomWeather, © 2015

See weather overviewHow to use our weather pages